﻿測定場所 (Monitoring sites),日付 (Measurement date),時間 (Measurement time),線量率 最大値 (max) μGy/h,線量率 最小値 (min) μGy/h,線量率 平均値 (average) μGy/h,
足立 (Adachi),2012-04-15,23:01～24:00,0.0686,0.0606,0.0643,
足立 (Adachi),2012-04-15,22:01～23:00,0.0675,0.0613,0.0642,
足立 (Adachi),2012-04-15,21:01～22:00,0.0677,0.0594,0.0640,
足立 (Adachi),2012-04-15,20:01～21:00,0.0686,0.0605,0.0638,
足立 (Adachi),2012-04-15,19:01～20:00,0.0676,0.0601,0.0640,
足立 (Adachi),2012-04-15,18:01～19:00,0.0684,0.0612,0.0636,
足立 (Adachi),2012-04-15,17:01～18:00,0.0666,0.0591,0.0634,
足立 (Adachi),2012-04-15,16:01～17:00,0.0669,0.0593,0.0640,
足立 (Adachi),2012-04-15,15:01～16:00,0.0666,0.0600,0.0636,
足立 (Adachi),2012-04-15,14:01～15:00,0.0665,0.0603,0.0637,
足立 (Adachi),2012-04-15,13:01～14:00,0.0664,0.0610,0.0640,
足立 (Adachi),2012-04-15,12:01～13:00,0.0700,0.0600,0.0638,
足立 (Adachi),2012-04-15,11:01～12:00,0.0672,0.0613,0.0642,
足立 (Adachi),2012-04-15,10:01～11:00,0.0685,0.0605,0.0641,
足立 (Adachi),2012-04-15,09:01～10:00,0.0670,0.0602,0.0640,
足立 (Adachi),2012-04-15,08:01～09:00,0.0690,0.0607,0.0644,
足立 (Adachi),2012-04-15,07:01～08:00,0.0688,0.0600,0.0645,
足立 (Adachi),2012-04-15,06:01～07:00,0.0674,0.0610,0.0638,
足立 (Adachi),2012-04-15,05:01～06:00,0.0672,0.0589,0.0629,
足立 (Adachi),2012-04-15,04:01～05:00,0.0678,0.0602,0.0634,
足立 (Adachi),2012-04-15,03:01～04:00,0.0683,0.0599,0.0636,
足立 (Adachi),2012-04-15,02:01～03:00,0.0675,0.0597,0.0637,
足立 (Adachi),2012-04-15,01:01～02:00,0.0672,0.0589,0.0634,
足立 (Adachi),2012-04-15,00:01～01:00,0.0670,0.0601,0.0633,
足立 (Adachi),2012-04-14,23:01～24:00,0.0687,0.0597,0.0633,
足立 (Adachi),2012-04-14,22:01～23:00,0.0673,0.0605,0.0638,
足立 (Adachi),2012-04-14,21:01～22:00,0.0694,0.0612,0.0657,
足立 (Adachi),2012-04-14,20:01～21:00,0.0723,0.0640,0.0680,
足立 (Adachi),2012-04-14,19:01～20:00,0.0711,0.0608,0.0662,
足立 (Adachi),2012-04-14,18:01～19:00,0.0721,0.0628,0.0685,
足立 (Adachi),2012-04-14,17:01～18:00,0.0755,0.0667,0.0719,
足立 (Adachi),2012-04-14,16:01～17:00,0.0754,0.0675,0.0714,
足立 (Adachi),2012-04-14,15:01～16:00,0.0775,0.0676,0.0719,
足立 (Adachi),2012-04-14,14:01～15:00,0.0796,0.0689,0.0737,
足立 (Adachi),2012-04-14,13:01～14:00,0.0894,0.0736,0.0813,
足立 (Adachi),2012-04-14,12:01～13:00,0.0862,0.0726,0.0802,
足立 (Adachi),2012-04-14,11:01～12:00,0.0845,0.0715,0.0791,
足立 (Adachi),2012-04-14,10:01～11:00,0.0888,0.0742,0.0818,
足立 (Adachi),2012-04-14,09:01～10:00,0.0938,0.0794,0.0864,
足立 (Adachi),2012-04-14,08:01～09:00,0.0910,0.0767,0.0834,
足立 (Adachi),2012-04-14,07:01～08:00,0.0856,0.0719,0.0777,
足立 (Adachi),2012-04-14,06:01～07:00,0.0834,0.0722,0.0774,
足立 (Adachi),2012-04-14,05:01～06:00,0.0817,0.0702,0.0753,
足立 (Adachi),2012-04-14,04:01～05:00,0.0742,0.0671,0.0713,
足立 (Adachi),2012-04-14,03:01～04:00,0.0750,0.0686,0.0720,
足立 (Adachi),2012-04-14,02:01～03:00,0.0791,0.0692,0.0731,
足立 (Adachi),2012-04-14,01:01～02:00,0.0774,0.0691,0.0730,
足立 (Adachi),2012-04-14,00:01～01:00,0.0801,0.0681,0.0723,
足立 (Adachi),2012-04-13,23:01～24:00,0.0753,0.0673,0.0706,
足立 (Adachi),2012-04-13,22:01～23:00,0.0781,0.0693,0.0729,
足立 (Adachi),2012-04-13,21:01～22:00,0.0775,0.0684,0.0719,
足立 (Adachi),2012-04-13,20:01～21:00,0.0747,0.0657,0.0704,
足立 (Adachi),2012-04-13,19:01～20:00,0.0694,0.0611,0.0658,
足立 (Adachi),2012-04-13,18:01～19:00,0.0687,0.0627,0.0651,
足立 (Adachi),2012-04-13,17:01～18:00,0.0691,0.0609,0.0648,
足立 (Adachi),2012-04-13,16:01～17:00,0.0688,0.0617,0.0653,
足立 (Adachi),2012-04-13,15:01～16:00,0.0679,0.0613,0.0650,
足立 (Adachi),2012-04-13,14:01～15:00,0.0675,0.0606,0.0648,
足立 (Adachi),2012-04-13,13:01～14:00,0.0691,0.0616,0.0648,
足立 (Adachi),2012-04-13,12:01～13:00,0.0684,0.0612,0.0646,
足立 (Adachi),2012-04-13,11:01～12:00,0.0696,0.0608,0.0650,
足立 (Adachi),2012-04-13,10:01～11:00,0.0684,0.0621,0.0650,
足立 (Adachi),2012-04-13,09:01～10:00,0.0695,0.0612,0.0650,
足立 (Adachi),2012-04-13,08:01～09:00,0.0682,0.0616,0.0649,
足立 (Adachi),2012-04-13,07:01～08:00,0.0682,0.0598,0.0648,
足立 (Adachi),2012-04-13,06:01～07:00,0.0686,0.0609,0.0646,
足立 (Adachi),2012-04-13,05:01～06:00,0.0683,0.0620,0.0650,
足立 (Adachi),2012-04-13,04:01～05:00,0.0694,0.0609,0.0655,
足立 (Adachi),2012-04-13,03:01～04:00,0.0698,0.0609,0.0650,
足立 (Adachi),2012-04-13,02:01～03:00,0.0683,0.0611,0.0651,
足立 (Adachi),2012-04-13,01:01～02:00,0.0696,0.0625,0.0651,
足立 (Adachi),2012-04-13,00:01～01:00,0.0691,0.0621,0.0654,
足立 (Adachi),2012-04-12,23:01～24:00,0.0684,0.0611,0.0652,
足立 (Adachi),2012-04-12,22:01～23:00,0.0701,0.0621,0.0659,
足立 (Adachi),2012-04-12,21:01～22:00,0.0692,0.0617,0.0655,
足立 (Adachi),2012-04-12,20:01～21:00,0.0696,0.0606,0.0649,
足立 (Adachi),2012-04-12,19:01～20:00,0.0687,0.0607,0.0645,
足立 (Adachi),2012-04-12,18:01～19:00,0.0678,0.0603,0.0642,
足立 (Adachi),2012-04-12,17:01～18:00,0.0670,0.0606,0.0642,
足立 (Adachi),2012-04-12,16:01～17:00,0.0683,0.0620,0.0650,
足立 (Adachi),2012-04-12,15:01～16:00,0.0682,0.0608,0.0648,
足立 (Adachi),2012-04-12,14:01～15:00,0.0692,0.0611,0.0640,
足立 (Adachi),2012-04-12,13:01～14:00,0.0679,0.0610,0.0644,
足立 (Adachi),2012-04-12,12:01～13:00,0.0672,0.0606,0.0641,
足立 (Adachi),2012-04-12,11:01～12:00,0.0697,0.0605,0.0647,
足立 (Adachi),2012-04-12,10:01～11:00,0.0693,0.0600,0.0645,
足立 (Adachi),2012-04-12,09:01～10:00,0.0694,0.0608,0.0640,
足立 (Adachi),2012-04-12,08:01～09:00,0.0682,0.0596,0.0637,
足立 (Adachi),2012-04-12,07:01～08:00,0.0668,0.0605,0.0633,
足立 (Adachi),2012-04-12,06:01～07:00,0.0668,0.0593,0.0630,
足立 (Adachi),2012-04-12,05:01～06:00,0.0667,0.0591,0.0633,
足立 (Adachi),2012-04-12,04:01～05:00,0.0669,0.0587,0.0627,
足立 (Adachi),2012-04-12,03:01～04:00,0.0663,0.0598,0.0630,
足立 (Adachi),2012-04-12,02:01～03:00,0.0674,0.0603,0.0636,
足立 (Adachi),2012-04-12,01:01～02:00,0.0664,0.0590,0.0632,
足立 (Adachi),2012-04-12,00:01～01:00,0.0674,0.0604,0.0636,
足立 (Adachi),2012-04-11,23:01～24:00,0.0688,0.0620,0.0659,
足立 (Adachi),2012-04-11,22:01～23:00,0.0708,0.0637,0.0671,
足立 (Adachi),2012-04-11,21:01～22:00,0.0706,0.0612,0.0660,
足立 (Adachi),2012-04-11,20:01～21:00,0.0705,0.0617,0.0663,
足立 (Adachi),2012-04-11,19:01～20:00,0.0693,0.0612,0.0658,
足立 (Adachi),2012-04-11,18:01～19:00,0.0683,0.0608,0.0651,
足立 (Adachi),2012-04-11,17:01～18:00,0.0689,0.0619,0.0659,
足立 (Adachi),2012-04-11,16:01～17:00,0.0715,0.0597,0.0654,
足立 (Adachi),2012-04-11,15:01～16:00,0.0721,0.0622,0.0669,
足立 (Adachi),2012-04-11,14:01～15:00,0.0713,0.0627,0.0674,
足立 (Adachi),2012-04-11,13:01～14:00,0.0733,0.0650,0.0693,
足立 (Adachi),2012-04-11,12:01～13:00,0.0768,0.0666,0.0703,
足立 (Adachi),2012-04-11,11:01～12:00,0.0732,0.0663,0.0702,
